• en France
  • Liste des pays
  • À 7 jours
  • Température de l'eau
  • Carte satellitaire
  • Carte météo
  • Widgets météo
  • user-avatar
    Se connecter

    Météo par heure à Santa Rita

    Ce jour, 21 Février, Mercredi

    Heure Température Précipitation Vent Pression Humidité
    00:00 +29°C° 0 mm 4 m/s 748 mmHg 49%
    01:00 +28°C° 0 mm 4 m/s 748 mmHg 50%
    02:00 +28°C° 0 mm 4 m/s 748 mmHg 52%
    03:00 +27°C° 0 mm 4 m/s 748 mmHg 53%
    04:00 +27°C° 0 mm 4 m/s 748 mmHg 54%
    05:00 +27°C° 0 mm 4 m/s 749 mmHg 56%
    06:00 +27°C° 0 mm 4 m/s 749 mmHg 58%
    07:00 +27°C° 0 mm 4 m/s 750 mmHg 60%
    08:00 +29°C° 0 mm 4 m/s 750 mmHg 54%
    09:00 +32°C° 0 mm 4 m/s 750 mmHg 49%
    10:00 +34°C° 0 mm 4 m/s 751 mmHg 43%
    11:00 +35°C° 0 mm 4 m/s 750 mmHg 40%
    12:00 +37°C° 0 mm 4 m/s 749 mmHg 36%
    13:00 +38°C° 0 mm 3 m/s 748 mmHg 33%
    14:00 +38°C° 0 mm 3 m/s 748 mmHg 33%
    15:00 +38°C° 0 mm 3 m/s 747 mmHg 33%
    16:00 +38°C° 0 mm 3 m/s 747 mmHg 32%
    17:00 +36°C° 0 mm 3 m/s 747 mmHg 35%
    18:00 +34°C° 0 mm 3 m/s 747 mmHg 38%
    19:00 +31°C° 0 mm 2 m/s 747 mmHg 41%
    20:00 +30°C° 0 mm 2 m/s 748 mmHg 40%
    21:00 +30°C° 0 mm 2 m/s 748 mmHg 40%
    22:00 +29°C° 0 mm 3 m/s 749 mmHg 40%
    23:00 +29°C° 0 mm 3 m/s 749 mmHg 41%

    Demain, 22 Février, Jeudi

    Heure Température Précipitation Vent Pression Humidité
    00:00 +28°C° 0 mm 3 m/s 748 mmHg 42%
    01:00 +28°C° 0 mm 3 m/s 748 mmHg 44%
    02:00 +28°C° 0 mm 3 m/s 748 mmHg 45%
    03:00 +28°C° 0 mm 4 m/s 748 mmHg 46%
    04:00 +28°C° 0 mm 5 m/s 748 mmHg 48%
    05:00 +28°C° 0 mm 5 m/s 749 mmHg 51%
    06:00 +28°C° 0 mm 5 m/s 749 mmHg 55%
    07:00 +27°C° 0 mm 4 m/s 750 mmHg 59%
    08:00 +29°C° 0 mm 5 m/s 750 mmHg 54%
    09:00 +32°C° 0 mm 5 m/s 750 mmHg 49%
    10:00 +34°C° 0 mm 5 m/s 751 mmHg 44%
    11:00 +36°C° 0 mm 5 m/s 750 mmHg 40%
    12:00 +37°C° 0 mm 5 m/s 749 mmHg 37%
    13:00 +39°C° 0 mm 5 m/s 748 mmHg 33%
    14:00 +39°C° 0 mm 5 m/s 747 mmHg 33%
    15:00 +39°C° 0 mm 5 m/s 746 mmHg 32%
    16:00 +39°C° 0 mm 5 m/s 746 mmHg 31%
    17:00 +36°C° 0 mm 4 m/s 746 mmHg 34%
    18:00 +34°C° 0 mm 4 m/s 746 mmHg 37%
    19:00 +31°C° 0 mm 3 m/s 747 mmHg 40%
    20:00 +31°C° 0 mm 3 m/s 747 mmHg 40%
    21:00 +31°C° 0 mm 3 m/s 748 mmHg 41%
    22:00 +30°C° 0 mm 4 m/s 748 mmHg 42%
    23:00 +30°C° 0 mm 4 m/s 748 mmHg 43%

    Après-demain, 23 Février, Vendredi

    Heure Température Précipitation Vent Pression Humidité
    00:00 +29°C° 0 mm 4 m/s 747 mmHg 45%
    01:00 +29°C° 0 mm 4 m/s 747 mmHg 46%
    02:00 +28°C° 0 mm 4 m/s 747 mmHg 48%
    03:00 +28°C° 0 mm 4 m/s 747 mmHg 50%
    04:00 +27°C° 0 mm 4 m/s 747 mmHg 52%
    05:00 +27°C° 0 mm 4 m/s 748 mmHg 54%
    06:00 +27°C° 0 mm 4 m/s 748 mmHg 57%
    07:00 +27°C° 0 mm 4 m/s 749 mmHg 59%
    08:00 +29°C° 0 mm 4 m/s 749 mmHg 54%
    09:00 +32°C° 0 mm 5 m/s 749 mmHg 49%
    10:00 +34°C° 0 mm 5 m/s 750 mmHg 44%
    11:00 +36°C° 0 mm 5 m/s 749 mmHg 40%
    12:00 +37°C° 0 mm 4 m/s 748 mmHg 36%
    13:00 +38°C° 0 mm 4 m/s 747 mmHg 32%
    14:00 +38°C° 0 mm 4 m/s 746 mmHg 32%
    15:00 +38°C° 0 mm 4 m/s 745 mmHg 31%
    16:00 +38°C° 0 mm 4 m/s 745 mmHg 30%
    17:00 +36°C° 0 mm 3 m/s 745 mmHg 34%
    18:00 +34°C° 0 mm 3 m/s 746 mmHg 37%
    19:00 +31°C° 0 mm 2 m/s 746 mmHg 41%
    20:00 +31°C° 0 mm 2 m/s 747 mmHg 41%
    21:00 +30°C° 0 mm 3 m/s 747 mmHg 42%
    22:00 +30°C° 0 mm 3 m/s 747 mmHg 43%
    23:00 +29°C° 0 mm 3 m/s 747 mmHg 44%

    24 Février, Samedi

    Heure Température Précipitation Vent Pression Humidité
    00:00 +29°C° 0 mm 3 m/s 747 mmHg 46%
    01:00 +29°C° 0 mm 3 m/s 746 mmHg 47%
    02:00 +28°C° 0 mm 3 m/s 746 mmHg 49%
    03:00 +28°C° 0 mm 3 m/s 746 mmHg 51%
    04:00 +27°C° 0 mm 3 m/s 746 mmHg 53%
    05:00 +27°C° 0 mm 3 m/s 747 mmHg 55%
    06:00 +27°C° 0 mm 3 m/s 748 mmHg 57%
    07:00 +28°C° 0 mm 4 m/s 748 mmHg 60%
    08:00 +29°C° 0 mm 4 m/s 748 mmHg 55%
    09:00 +31°C° 0 mm 3 m/s 748 mmHg 50%
    10:00 +34°C° 0 mm 3 m/s 749 mmHg 45%
    11:00 +36°C° 0 mm 3 m/s 748 mmHg 41%
    12:00 +37°C° 0 mm 3 m/s 747 mmHg 38%
    13:00 +38°C° 0 mm 2 m/s 746 mmHg 35%
    14:00 +38°C° 0 mm 2 m/s 746 mmHg 35%
    15:00 +38°C° 0 mm 2 m/s 745 mmHg 35%
    16:00 +37°C° 0 mm 2 m/s 745 mmHg 35%
    17:00 +36°C° 0 mm 2 m/s 745 mmHg 39%
    18:00 +33°C° 0 mm 1 m/s 746 mmHg 42%
    19:00 +31°C° 0 mm 1 m/s 746 mmHg 46%
    20:00 +31°C° 0 mm 1 m/s 747 mmHg 47%
    21:00 +30°C° 0 mm 1 m/s 747 mmHg 48%
    22:00 +30°C° 0 mm 1 m/s 748 mmHg 49%
    23:00 +30°C° 0 mm 1 m/s 747 mmHg 50%

    25 Février, Dimanche

    Heure Température Précipitation Vent Pression Humidité
    00:00 +29°C° 0 mm 1 m/s 747 mmHg 51%
    01:00 +29°C° 0 mm 2 m/s 747 mmHg 52%
    02:00 +28°C° 0 mm 2 m/s 747 mmHg 54%
    03:00 +28°C° 0 mm 2 m/s 747 mmHg 55%
    04:00 +28°C° 0 mm 3 m/s 747 mmHg 57%
    05:00 +28°C° 0 mm 3 m/s 748 mmHg 59%
    06:00 +28°C° 0 mm 3 m/s 748 mmHg 60%
    07:00 +28°C° 0 mm 3 m/s 749 mmHg 62%
    08:00 +30°C° 0 mm 3 m/s 749 mmHg 56%
    09:00 +33°C° 0 mm 3 m/s 749 mmHg 50%
    10:00 +35°C° 0 mm 3 m/s 749 mmHg 44%
    11:00 +37°C° 0 mm 3 m/s 748 mmHg 40%
    12:00 +38°C° 0 mm 3 m/s 747 mmHg 37%
    13:00 +39°C° 0 mm 2 m/s 747 mmHg 34%
    14:00 +38°C° 0 mm 2 m/s 746 mmHg 34%
    15:00 +38°C° 0 mm 2 m/s 745 mmHg 34%
    16:00 +38°C° 0 mm 2 m/s 745 mmHg 34%
    17:00 +36°C° 0 mm 2 m/s 745 mmHg 38%
    18:00 +35°C° 0 mm 2 m/s 746 mmHg 41%
    19:00 +32°C° 0 mm 2 m/s 746 mmHg 44%
    20:00 +32°C° 0 mm 2 m/s 747 mmHg 45%
    21:00 +31°C° 0 mm 2 m/s 747 mmHg 46%
    22:00 +31°C° 0 mm 2 m/s 748 mmHg 48%
    23:00 +31°C° 0 mm 2 m/s 747 mmHg 50%

    26 Février, Lundi

    Heure Température Précipitation Vent Pression Humidité
    00:00 +30°C° 0 mm 2 m/s 747 mmHg 52%
    01:00 +30°C° 0 mm 2 m/s 747 mmHg 55%
    02:00 +29°C° 0 mm 2 m/s 747 mmHg 57%
    03:00 +29°C° 0 mm 2 m/s 747 mmHg 59%
    04:00 +28°C° 0 mm 2 m/s 747 mmHg 62%
    05:00 +28°C° 0 mm 2 m/s 748 mmHg 62%
    06:00 +28°C° 0 mm 3 m/s 748 mmHg 62%
    07:00 +29°C° 0 mm 3 m/s 749 mmHg 62%
    08:00 +31°C° 0 mm 3 m/s 749 mmHg 56%
    09:00 +34°C° 0 mm 3 m/s 749 mmHg 49%
    10:00 +36°C° 0 mm 3 m/s 749 mmHg 43%
    11:00 +37°C° 0 mm 3 m/s 748 mmHg 39%
    12:00 +38°C° 0 mm 3 m/s 747 mmHg 36%
    13:00 +40°C° 0 mm 3 m/s 747 mmHg 32%
    14:00 +39°C° 0 mm 3 m/s 746 mmHg 32%
    15:00 +39°C° 0 mm 2 m/s 745 mmHg 33%
    16:00 +39°C° 0 mm 2 m/s 745 mmHg 33%
    17:00 +37°C° 0 mm 2 m/s 745 mmHg 36%
    18:00 +35°C° 0 mm 2 m/s 746 mmHg 39%
    19:00 +34°C° 0 mm 2 m/s 746 mmHg 42%
    20:00 +32°C° 0 mm 2 m/s 746 mmHg 44%
    21:00 +32°C° 0 mm 2 m/s 747 mmHg 45%
    22:00 +33°C° 0 mm 3 m/s 747 mmHg 46%
    23:00 +31°C° 0 mm 2 m/s 747 mmHg 50%
    Voir plus